Location: Unspecified
(0.0000°N, 0.0000°E)
Time: 22:16:11
(UTC+02:00)

Ariane H10 - Visible Passes

Search period start: 22 September 2014 00:00
Search period end: 02 October 2014 00:00
Orbit: 296 x 24642 km, 3.9° (Epoch: 21 September)

Date Brightness Start Highest point End Pass type
(mag) Time Alt. Az. Time Alt. Az. Time Alt. Az.
22 Sep 6.7 03:24:55 18° E 03:24:55 18° E 03:26:11 10° E visible
22 Sep 8.6 18:23:59 10° W 23:30:31 87° S 00:03:11 78° ESE visible
23 Sep 7.6 15:39:58 10° W 15:57:08 82° N 21:31:05 27° E visible
24 Sep 4.6 05:29:13 65° SW 05:30:49 74° S 05:36:03 10° E visible
24 Sep 7.1 20:47:59 10° W 02:07:52 55° W 02:07:52 55° W visible
25 Sep 8.5 17:52:58 10° W 21:39:21 88° ESE 23:35:42 68° ESE visible
26 Sep 7.3 15:09:53 10° W 15:23:50 81° N 21:03:30 19° E visible
27 Sep 4.9 03:09:58 10° W 05:00:48 73° SSE 05:06:13 10° E visible
27 Sep 7.5 20:13:37 10° W 01:40:09 64° W 01:40:09 64° W visible
28 Sep 8.5 17:21:48 10° W 18:13:52 86° N 23:07:54 58° E visible
29 Sep 2.7 07:04:49 13° W 07:12:21 72° S 07:15:00 10° E visible
29 Sep 6.9 14:39:30 10° W 14:50:55 80° N 20:35:37 11° E visible
29 Sep 5.4 23:11:42 10° W 04:32:01 50° ESE 04:35:57 10° E visible
30 Sep 8.5 19:39:48 10° W 01:12:09 74° WSW 01:12:09 74° WSW visible
01 Oct 8.5 16:50:28 10° W 17:27:19 85° N 22:39:49 48° E visible
